Weather History for KLOT - March, 2014

Change the Weather History Date:

Saturday, March 29, 2014

  Actual Average Record
Temperature  
Mean Temperature 35 °F 44 °F  
Max Temperature 42 °F 54 °F 80 °F (1998)
Min Temperature 28 °F 33 °F 23 °F (2008)
Degree Days  
Heating Degree Days 30 21  
Month to date heating degree days 1014 775  
Since 1 July heating degree days 6618 5503  
Cooling Degree Days 0 0  
Month to date cooling degree days 0 0  
Year to date cooling degree days 0 0  
Moisture  
Dew Point 26 °F    
Average Humidity 73    
Maximum Humidity 91    
Minimum Humidity 48    
Precipitation  
Precipitation 0.00 in 0.10 in 0.40 in (2009)
Month to date precipitation 2.09 2.58  
Year to date precipitation 6.95 6.29  
Snow  
Snow 0.00 in 0.10 in 1.50 in (2009)
Month to date snowfall 10.2 4.3  
Since 1 July snowfall 75.7 31.7  
Snow Depth 0.00 in    
Sea Level Pressure  
Sea Level Pressure 30.19 in    
Wind  
Wind Speed 9 mph (NNE)    
Max Wind Speed 17 mph    
Max Gust Speed 21 mph    
Visibility 10 miles    
Events      
T = Trace of Precipitation, MM = Missing Value Source: NWS Daily Summary

Daily Weather History Graph

Daily Weather History Graph

Search for Another Location

Airport or City:

Trip Planner

Search our weather history database for the weather conditions in past years. The results will help you decide how hot, cold, wet, or windy it might be!

Date:

Astronomy

Mar. 29, 2014 Rise Set
Actual Time 6:40 AM CDT 7:14 PM CDT
Civil Twilight 6:12 AM CDT 7:42 PM CDT
Nautical Twilight 5:39 AM CDT 8:15 PM CDT
Astronomical Twilight 5:05 AM CDT 8:49 PM CDT
Moon 5:49 AM CDT 6:18 PM CDT
Length of Visible Light 13h 29m
Length of Day
12h 34m
Waning Crescent, 2% of the Moon is Illuminated
Mar 29
Waning Crescent
Mar 30
New
Apr 7
First Quarter
Apr 15
Full
Apr 22
Last Quarter

Hourly Weather History & Observations

Time (CDT) Temp. Windchill Dew Point Humidity Pressure Visibility Wind Dir Wind Speed Gust Speed Precip Events Conditions
12:15 AM 33.8 °F 30.8 °F 28.4 °F 81% 30.21 in 10.0 mi East 3.5 mph - N/A   Overcast
12:35 AM 33.8 °F 30.8 °F 28.4 °F 81% 30.20 in 10.0 mi ESE 3.5 mph - N/A   Overcast
12:55 AM 33.4 °F 29.1 °F 28.4 °F 82% 30.19 in 10.0 mi ENE 4.6 mph - N/A   Overcast
1:15 AM 33.1 °F 27.7 °F 28.6 °F 84% 30.18 in 10.0 mi NE 5.8 mph - N/A   Overcast
1:35 AM 33.1 °F 27.7 °F 28.4 °F 83% 30.17 in 10.0 mi NE 5.8 mph - N/A   Overcast
1:55 AM 33.1 °F 27.7 °F 28.0 °F 82% 30.18 in 10.0 mi ENE 5.8 mph - N/A   Overcast
2:15 AM 33.1 °F 26.1 °F 28.4 °F 83% 30.18 in 10.0 mi NE 8.1 mph - N/A   Overcast
2:35 AM 33.1 °F 26.9 °F 28.4 °F 83% 30.17 in 10.0 mi NNE 6.9 mph - N/A   Overcast
2:55 AM 32.9 °F 26.7 °F 28.4 °F 84% 30.17 in 10.0 mi NNE 6.9 mph - N/A   Overcast
3:15 AM 32.9 °F 25.9 °F 28.4 °F 84% 30.15 in 10.0 mi North 8.1 mph - N/A   Overcast
3:35 AM 32.9 °F 25.3 °F 28.4 °F 84% 30.15 in 10.0 mi North 9.2 mph - N/A   Scattered Clouds
3:55 AM 32.9 °F 25.9 °F 28.2 °F 83% 30.14 in 10.0 mi North 8.1 mph - N/A   Scattered Clouds
4:15 AM 32.4 °F 24.0 °F 27.7 °F 83% 30.14 in 10.0 mi NNE 10.4 mph - N/A   Scattered Clouds
4:35 AM 32.2 °F 23.8 °F 27.5 °F 83% 30.14 in 10.0 mi North 10.4 mph - N/A   Clear
4:55 AM 32.2 °F 23.8 °F 27.3 °F 82% 30.14 in 10.0 mi NNE 10.4 mph - N/A   Scattered Clouds
5:15 AM 32.2 °F 24.4 °F 27.3 °F 82% 30.14 in 10.0 mi North 9.2 mph - N/A   Overcast
5:35 AM 32.0 °F 24.8 °F 27.5 °F 83% 30.14 in 10.0 mi NNE 8.1 mph - N/A   Overcast
5:55 AM 32.0 °F 24.8 °F 27.7 °F 84% 30.15 in 10.0 mi North 8.1 mph - N/A   Overcast
6:15 AM 32.2 °F 23.8 °F 28.0 °F 85% 30.15 in 10.0 mi North 10.4 mph - N/A   Overcast
6:35 AM 32.2 °F 24.4 °F 28.4 °F 86% 30.16 in 10.0 mi NNE 9.2 mph - N/A   Overcast
6:55 AM 32.2 °F 22.7 °F 28.4 °F 86% 30.16 in 10.0 mi NNE 12.7 mph - N/A   Overcast
7:15 AM 32.4 °F 22.5 °F 28.4 °F 85% 30.17 in 10.0 mi NNE 13.8 mph - N/A   Overcast
7:35 AM 32.4 °F 23.0 °F 28.4 °F 85% 30.17 in 10.0 mi NNE 12.7 mph - N/A   Overcast
7:55 AM 32.5 °F 23.2 °F 28.6 °F 85% 30.17 in 10.0 mi NNE 12.7 mph - N/A   Overcast
8:15 AM 32.5 °F 24.2 °F 28.9 °F 87% 30.17 in 10.0 mi NNE 10.4 mph - N/A   Overcast
8:35 AM 32.9 °F 22.8 °F 29.3 °F 87% 30.17 in 7.0 mi NNE 15.0 mph - N/A   Overcast
8:55 AM 32.9 °F 23.2 °F 29.3 °F 87% 30.18 in 7.0 mi NNE 13.8 mph - N/A   Overcast
9:15 AM 32.9 °F 23.7 °F 29.8 °F 88% 30.19 in 5.0 mi NNE 12.7 mph - N/A   Overcast
9:35 AM 32.9 °F 23.7 °F 30.2 °F 90% 30.19 in 4.0 mi NNE 12.7 mph - N/A   Overcast
9:55 AM 33.1 °F 23.0 °F 30.7 °F 91% 30.19 in 4.0 mi NNE 15.0 mph - N/A   Overcast
10:15 AM 33.3 °F 24.6 °F 30.7 °F 90% 30.21 in 4.0 mi NNE 11.5 mph - N/A   Overcast
10:35 AM 34.0 °F 25.5 °F 31.1 °F 89% 30.21 in 5.0 mi NNE 11.5 mph - N/A   Overcast
10:55 AM 34.7 °F 25.1 °F 30.4 °F 84% 30.21 in 7.0 mi NNE 15.0 mph - N/A   Overcast
11:15 AM 35.6 °F 26.6 °F 30.9 °F 83% 30.21 in 10.0 mi NE 13.8 mph - N/A   Overcast
11:35 AM 35.6 °F 26.6 °F 30.6 °F 82% 30.21 in 10.0 mi NNE 13.8 mph - N/A   Overcast
11:55 AM 36.0 °F 26.7 °F 30.2 °F 80% 30.21 in 10.0 mi NNE 15.0 mph - N/A   Overcast
12:15 PM 36.5 °F 27.8 °F 30.4 °F 78% 30.21 in 10.0 mi North 13.8 mph - N/A   Overcast
12:35 PM 36.7 °F 28.9 °F 30.4 °F 78% 30.20 in 10.0 mi NNE 11.5 mph - N/A   Overcast
12:55 PM 36.5 °F 26.7 °F 30.0 °F 77% 30.19 in 10.0 mi NNE 17.3 mph - N/A   Overcast
1:15 PM 37.4 °F 28.5 °F 30.9 °F 77% 30.19 in 10.0 mi NNE 15.0 mph - N/A   Overcast
1:35 PM 37.9 °F 29.2 °F 29.8 °F 73% 30.18 in 10.0 mi NNE 15.0 mph 19.6 mph N/A   Overcast
1:55 PM 37.9 °F 28.5 °F 29.7 °F 72% 30.18 in 10.0 mi NE 17.3 mph - N/A   Overcast
2:15 PM 38.1 °F 29.1 °F 28.6 °F 69% 30.18 in 10.0 mi NNE 16.1 mph 19.6 mph N/A   Overcast
2:35 PM 38.1 °F 29.5 °F 28.4 °F 68% 30.17 in 10.0 mi NNE 15.0 mph - N/A   Overcast
2:55 PM 38.8 °F 30.0 °F 28.6 °F 67% 30.17 in 10.0 mi NE 16.1 mph 20.7 mph N/A   Overcast
3:15 PM 39.4 °F 31.8 °F 29.1 °F 67% 30.17 in 10.0 mi NNE 12.7 mph 19.6 mph N/A   Overcast
3:35 PM 39.2 °F 30.8 °F 27.7 °F 63% 30.17 in 10.0 mi NE 15.0 mph 19.6 mph N/A   Scattered Clouds
3:55 PM 40.5 °F 32.8 °F 28.0 °F 61% 30.17 in 10.0 mi NE 13.8 mph 18.4 mph N/A   Clear
4:15 PM 40.8 °F 32.6 °F 27.0 °F 58% 30.17 in 10.0 mi NNE 16.1 mph 20.7 mph N/A   Clear
4:35 PM 41.0 °F 34.3 °F 27.1 °F 58% 30.18 in 10.0 mi NNE 11.5 mph 18.4 mph N/A   Clear
4:55 PM 41.0 °F 33.1 °F 27.3 °F 58% 30.18 in 10.0 mi NNE 15.0 mph 19.6 mph N/A   Clear
5:15 PM 40.8 °F 33.7 °F 27.1 °F 58% 30.19 in 10.0 mi NNE 12.7 mph - N/A   Clear
5:35 PM 40.3 °F 32.6 °F 26.2 °F 57% 30.20 in 10.0 mi NE 13.8 mph - N/A   Clear
5:55 PM 39.9 °F 32.9 °F 26.4 °F 59% 30.21 in 10.0 mi NE 11.5 mph - N/A   Clear
6:15 PM 39.4 °F 33.8 °F 25.3 °F 57% 30.21 in 10.0 mi NE 8.1 mph - N/A   Clear
6:35 PM 38.5 °F 31.6 °F 25.5 °F 60% 30.22 in 10.0 mi NE 10.4 mph - N/A   Clear
6:55 PM 37.4 °F 30.8 °F 24.4 °F 60% 30.22 in 10.0 mi NE 9.2 mph - N/A   Clear
7:15 PM 36.5 °F 29.7 °F 24.3 °F 61% 30.22 in 10.0 mi NE 9.2 mph - N/A   Clear
7:35 PM 35.1 °F 26.9 °F 22.1 °F 59% 30.23 in 10.0 mi NE 11.5 mph - N/A   Clear
7:55 PM 33.8 °F 27.7 °F 19.0 °F 55% 30.23 in 10.0 mi NE 6.9 mph - N/A   Clear
8:15 PM 32.4 °F 26.9 °F 17.4 °F 54% 30.24 in 10.0 mi NE 5.8 mph - N/A   Clear
8:35 PM 32.0 °F 28.7 °F 18.1 °F 57% 30.24 in 10.0 mi NE 3.5 mph - N/A   Clear
8:55 PM 30.9 °F 27.5 °F 16.5 °F 55% 30.25 in 10.0 mi NE 3.5 mph - N/A   Clear
9:15 PM 30.7 °F 27.3 °F 15.6 °F 54% 30.25 in 10.0 mi ENE 3.5 mph - N/A   Clear
9:35 PM 30.2 °F 25.4 °F 15.3 °F 54% 30.25 in 10.0 mi ENE 4.6 mph - N/A   Clear
9:55 PM 30.2 °F 25.4 °F 18.5 °F 62% 30.25 in 10.0 mi NNE 4.6 mph - N/A   Clear
10:15 PM 32.0 °F 28.7 °F 14.4 °F 48% 30.25 in 10.0 mi North 3.5 mph - N/A   Clear
10:35 PM 32.0 °F 26.4 °F 15.6 °F 51% 30.25 in 10.0 mi North 5.8 mph - N/A   Clear
10:55 PM 32.0 °F 26.4 °F 16.2 °F 52% 30.26 in 10.0 mi North 5.8 mph - N/A   Clear
11:15 PM 31.3 °F 26.6 °F 17.4 °F 57% 30.25 in 10.0 mi North 4.6 mph - N/A   Clear
11:35 PM 29.8 °F 24.9 °F 17.4 °F 60% 30.25 in 10.0 mi NNE 4.6 mph - N/A   Clear
11:55 PM 29.3 °F 25.6 °F 16.9 °F 60% 30.25 in 10.0 mi NNE 3.5 mph - N/A   Clear